Regional Weather Roundup
Issued by NWS Albany, NY

Home | Current Version | Previous Version | Text Only | Print | Product List | Glossary On
Versions: 1 2 3 4 5 6 7 8 9 10 11 12 13 14 15 16 17 18 19 20 21 22 23 24 25 26 27 28 29 30 31 32 33 34 35 36 37 38 39 40 41 42 43 44 45 46 47 48 49 50
000
ASUS41 KALY 300210
RWRALY

NEW YORK STATE HOURLY WEATHER ROUNDUP
NATIONAL WEATHER SERVICE ALBANY NY
1000 PM EDT SAT APR 29 2017

NOTE: "FAIR" INDICATES FEW OR NO CLOUDS BELOW 12,000 FEET WITH NO
SIGNIFICANT WEATHER AND/OR NO OBSTRUCTIONS TO VISIBILITY.

NYZ032-033-038>043-046>054-057>066-NYZ062>081-082-084-300300-
EAST


CITY           SKY/WX    TMP DP  RH WIND       PRES   REMARKS
ALBANY         PTCLDY    56  35  45 W16G25    30.14R
GLENS FALLS    CLEAR     59  36  42 N14G20    30.10R
POUGHKEEPSIE   MOCLDY    67  52  58 NW5       30.08R
NEWBURGH       MOCLDY    66  55  68 NW6       30.12R
MONTGOMERY     PTCLDY    66  51  58 NW9       30.10R
WHITE PLAINS   PTCLDY    69  53  56 NW20G31   30.09R
ISLIP          PTCLDY    74  57  55 NW16      30.06R
NEW YORK CITY  MOCLDY    76  56  49 NW14G23   30.07R
CENTRAL PARK   CLOUDY    75  57  53 VRB5      30.11R
$$

NYZ005>009-017-018-044>046-055-056-300300-
CENTRAL


CITY           SKY/WX    TMP DP  RH WIND       PRES   REMARKS
FULTON         CLEAR     46  34  62 SW3       30.20R
SYRACUSE       PTCLDY    49  33  54 W8        30.20R
ROME           CLEAR     49  35  58 W6        30.21R
ELMIRA         CLOUDY    57  45  64 N3        30.19R
BINGHAMTON     CLOUDY    52  40  63 NW6       30.18R
MONTICELLO     CLOUDY    57  46  67 NW9       30.17R
$$

NYZ026>034-041>043-087-300300-
NORTH


CITY           SKY/WX    TMP DP  RH WIND       PRES   REMARKS
WATERTOWN      CLEAR     42  37  82 CALM      30.21R
FORT DRUM      NOT AVBL
OGDENSBURG     FAIR      46  29  50 N9        30.24R
MASSENA        CLEAR     44  24  45 N14G20    30.27R
SARANAC LAKE   CLEAR     45  28  51 N6        30.15R
PLATTSBURGH    CLEAR     50  26  39 N21G26    30.18R
$$

NYZ001>004-010>016-019>021-085-300300-
WEST


CITY           SKY/WX    TMP DP  RH WIND       PRES   REMARKS
NIAGARA FALLS  CLEAR     49  31  49 N8        30.24R
BUFFALO        PTCLDY    48  40  73 W3        30.24R
DUNKIRK        CLOUDY    50  45  83 CALM      30.23R
JAMESTOWN      CLOUDY    48  43  81 NW7       30.21S
WELLSVILLE     CLOUDY    52  47  83 CALM      30.22R
ROCHESTER      PTCLDY    50  35  56 N8        30.25R
PENN YAN       MOCLDY    52  37  56 W5        30.20F
$$

             KEY
       WCI = WIND CHILL INDEX
       VSB = VISIBILITY
       HX  = HEAT INDEX
$$



USA.gov is the U.S. government's official web portal to all federal, state and local government web resources and services.